Location: Old Broadwell Mill Observatory
(33.8015°N, 85.8137°W)
Time: 18:55:39
(UTC-06:00)

Amateur Radio Satellites - All Passes

Search period start: 25 December 2014 18:25
Search period end: 26 December 2014 18:25
Location: Old Broadwell Mill Observatory, 33.8015°N, 85.8137°W

Satellite Date Start Highest point End Downlink Frequencies (MHz)
Time Altitude Azimuth
CUSAT 1 25 Dec 18:30:01 18:37:14 32° 73° (ENE) 18:44:28 437.405
CANX-2 25 Dec 18:40:28 18:41:04 10° 66° (ENE) 18:41:40 2200.000
STRAND 1 25 Dec 18:41:27 18:46:34 90° 284° (WNW) 18:51:40 437.568
SO-50 25 Dec 18:42:01 18:46:21 51° 115° (ESE) 18:50:50 436.795
HO-68 25 Dec 18:43:32 18:49:20 28° 64° (ENE) 18:55:08 435.675
SEEDS 25 Dec 18:57:52 18:59:54 13° 67° (ENE) 19:01:56 437.485
GOMX 1 25 Dec 19:03:33 19:05:35 14° 67° (ENE) 19:07:39 467.674
BRITE-PL 25 Dec 19:04:36 19:07:40 20° 70° (ENE) 19:10:45 437.365/2234.400
CUTE 1.7 + AOD 2 25 Dec 19:07:40 19:10:50 21° 70° (ENE) 19:14:01 437.475
CUBESAT XI-V 25 Dec 19:33:20 19:36:26 18° 292° (WNW) 19:39:32 437.345
AAUSAT CUBESAT 2 25 Dec 19:38:35 19:42:14 29° 72° (ENE) 19:45:53 437.432
DANDE 25 Dec 19:48:44 19:57:10 87° 263° (W) 20:05:46 436.750
DX 1 25 Dec 19:52:00 19:54:35 16° 67° (ENE) 19:57:10 434.975-435.025
BEESAT 2 25 Dec 19:55:08 19:58:20 21° 53° (NE) 20:01:29 435.950
UWE-3 25 Dec 19:55:32 19:56:42 11° 65° (ENE) 19:57:52 435.000/436.395/437.385
DELFI C3 25 Dec 20:00:22 20:03:23 20° 70° (ENE) 20:06:25 145.870
Oscar 11 25 Dec 20:03:10 20:06:51 28° 71° (ENE) 20:10:33 145.826/435.025
RS-15 25 Dec 20:05:59 20:17:25 90° 63° (ENE) 20:29:22 29.354- 29.394
CANX-2 25 Dec 20:12:15 20:16:27 57° 260° (W) 20:20:41 2200.000
CUSAT 1 25 Dec 20:12:27 20:20:30 54° 268° (W) 20:28:30 437.405
UKube-1 25 Dec 20:15:25 20:19:07 28° 71° (ENE) 20:22:49 .
COMPASS 1 25 Dec 20:17:29 20:21:42 78° 258° (WSW) 20:25:58 437.405
CINEMA 3 25 Dec 20:20:56 20:24:55 46° 74° (ENE) 20:29:02 145.822/145.860
AISAT 25 Dec 20:23:04 20:24:19 11° 65° (ENE) 20:25:33 437.250
SO-50 25 Dec 20:24:23 20:27:12 16° 312° (NW) 20:30:05 436.795
HO-68 25 Dec 20:29:44 20:36:38 50° 259° (W) 20:43:34 435.675
PCSat 25 Dec 20:30:39 20:34:30 19° 52° (NE) 20:38:19 145.827
SEEDS 25 Dec 20:31:15 20:35:17 43° 261° (W) 20:39:22 437.485
DOVE 4 25 Dec 20:37:55 20:41:58 57° 260° (W) 20:46:09 437.250
GOMX 1 25 Dec 20:39:31 20:43:21 37° 262° (W) 20:47:15 467.674
BRITE-PL 25 Dec 20:42:45 20:46:05 23° 264° (W) 20:49:25 437.365/2234.400
CUTE 1.7 + AOD 2 25 Dec 20:42:57 20:46:33 27° 264° (W) 20:50:12 437.475
BEESAT 3 25 Dec 20:47:12 20:51:23 89° 67° (ENE) 20:55:28 437.485
ZACube-1 25 Dec 20:48:15 20:52:10 39° 73° (ENE) 20:56:11 437.345
CUBEBUG 2 25 Dec 21:02:29 21:06:40 88° 79° (E) 21:11:00 437.445
HUMSAT D 25 Dec 21:04:59 21:08:44 34° 73° (ENE) 21:12:33 437.325/437.525
VELOX 1 25 Dec 21:09:47 21:13:52 38° 73° (ENE) 21:17:58 145.980
FUNcube-1 25 Dec 21:12:52 21:17:03 81° 77° (ENE) 21:21:21 145.935
AAUSAT CUBESAT 2 25 Dec 21:14:58 21:17:52 18° 265° (W) 21:20:48 437.432
TIGRISAT 25 Dec 21:18:57 21:21:42 15° 93° (E) 21:24:26 435.000
DX 1 25 Dec 21:26:28 21:30:29 37° 261° (W) 21:34:31 434.975-435.025
AIST 2 25 Dec 21:27:22 21:31:40 85° 243° (WSW) 21:35:52 435.215
UWE-3 25 Dec 21:28:38 21:32:42 51° 260° (W) 21:36:54 435.000/436.395/437.385
50 SAT 25 Dec 21:32:01 21:35:57 59° 76° (ENE) 21:39:57 437.505
BEESAT 2 25 Dec 21:32:56 21:36:34 29° 248° (WSW) 21:40:08 435.950
ESTCUBE 1 25 Dec 21:33:41 21:37:32 28° 71° (ENE) 21:41:22 437.505/2401.250
DANDE 25 Dec 21:34:51 21:39:38 17° 277° (W) 21:44:28 436.750
DELFI C3 25 Dec 21:35:02 21:38:27 25° 264° (W) 21:41:54 145.870
Oscar 11 25 Dec 21:39:46 21:42:58 20° 265° (W) 21:46:12 145.826/435.025
CUBEBUG 1 25 Dec 21:41:22 21:45:11 31° 72° (ENE) 21:49:01 437.445
BUGSAT 1 25 Dec 21:46:48 21:48:44 13° 94° (E) 21:50:39 437.445
UNISAT 6 25 Dec 21:49:55 21:54:15 35° 98° (E) 21:58:32 437.425
POPSAT HIP 1 25 Dec 21:49:59 21:53:08 20° 95° (E) 21:56:17 437.405
UKube-1 25 Dec 21:52:03 21:55:13 20° 264° (W) 21:58:24 .
AISAT 25 Dec 21:56:05 22:00:24 56° 259° (W) 22:04:44 437.250
CINEMA 3 25 Dec 22:01:21 22:02:25 11° 269° (W) 22:03:28 145.822/145.860
TISAT 1 25 Dec 22:05:43 22:07:34 13° 67° (ENE) 22:09:24 437.305
PCSat 25 Dec 22:12:57 22:18:12 52° 249° (WSW) 22:23:25 145.827
DUCHIFAT 1 25 Dec 22:14:12 22:18:12 38° 99° (E) 22:22:11 145.980
RS-15 25 Dec 22:21:11 22:28:21 19° 259° (W) 22:35:44 29.354- 29.394
ANTELSAT 25 Dec 22:22:06 22:26:52 84° 102° (ESE) 22:31:34 437.575/2403.000
SPROUT 25 Dec 22:26:41 22:29:55 21° 70° (ENE) 22:33:10 437.525
ZACube-1 25 Dec 22:26:44 22:28:43 13° 268° (W) 22:30:43 437.345
QB50P2 25 Dec 22:31:56 22:36:12 68° 101° (ESE) 22:40:28 145.880/145.840
YUBILEINY 25 Dec 22:37:10 22:45:43 63° 92° (E) 22:54:15 435.215
NANOSAT C BR1 25 Dec 22:39:48 22:44:05 83° 102° (ESE) 22:48:21 145.865
HUMSAT D 25 Dec 22:42:17 22:44:37 15° 267° (W) 22:46:58 437.325/437.525
POLYITAN 1 25 Dec 22:42:51 22:47:10 88° 285° (WNW) 22:51:29 437.675
VELOX 1 25 Dec 22:48:02 22:50:33 15° 266° (W) 22:53:04 145.980
VERMONT LUNAR 25 Dec 22:49:25 22:52:18 24° 145° (SE) 22:55:12 437.305
TIGRISAT 25 Dec 22:54:06 22:58:35 44° 287° (WNW) 23:03:02 435.000
QB50P1 25 Dec 22:55:21 22:59:34 62° 285° (WNW) 23:03:48 145.935-145.965
O/OREOS (USA 219) 25 Dec 22:55:38 23:00:04 77° 108° (ESE) 23:04:32 437.305
ESTCUBE 1 25 Dec 23:10:50 23:14:20 22° 264° (W) 23:17:50 437.505/2401.250
CUBEBUG 1 25 Dec 23:18:34 23:21:34 18° 265° (W) 23:24:33 437.445
BUGSAT 1 25 Dec 23:20:32 23:24:19 37° 287° (WNW) 23:28:07 437.445
POPSAT HIP 1 25 Dec 23:25:21 23:28:59 28° 289° (WNW) 23:32:37 437.405
UNISAT 6 25 Dec 23:27:22 23:30:44 20° 292° (WNW) 23:34:05 437.425
PHONESAT 2.4 25 Dec 23:31:35 23:34:52 32° 147° (SSE) 23:38:09 2401.200-2431.200
TISAT 1 25 Dec 23:38:58 23:42:58 43° 261° (W) 23:46:58 437.305
DUCHIFAT 1 25 Dec 23:51:19 23:53:41 15° 292° (WNW) 23:56:04 145.980
SWISSCUBE 25 Dec 23:53:32 23:57:53 36° 72° (ENE) 00:02:15 437.505
ITUPSAT 1 25 Dec 23:56:31 00:00:51 35° 71° (ENE) 00:05:11 437.325
M-CUBED/EXP-1 PRIME 26 Dec 00:00:34 00:04:07 21° 64° (ENE) 00:07:40 437.505
SPROUT 26 Dec 00:02:18 00:05:50 25° 263° (W) 00:09:24 437.525
BEESAT 26 Dec 00:16:53 00:21:35 60° 74° (ENE) 00:26:18 436.000
VERMONT LUNAR 26 Dec 00:26:54 00:30:24 61° 338° (NNW) 00:33:54 437.305
YUBILEINY 26 Dec 00:36:21 00:43:01 24° 289° (WNW) 00:49:42 435.215
AUBIESAT-1 26 Dec 01:03:41 01:08:32 86° 72° (ENE) 01:13:26 437.475
STARS 26 Dec 01:06:21 01:09:50 24° 70° (ENE) 01:13:20 437.465
PHONESAT 2.4 26 Dec 01:09:54 01:13:27 50° 341° (NNW) 01:17:00 2401.200-2431.200
KKS-1 26 Dec 01:22:03 01:26:22 57° 75° (ENE) 01:30:44 437.445
Oscar 19 26 Dec 01:24:39 01:29:52 80° 284° (WNW) 01:35:02 437.125/150
SWISSCUBE 26 Dec 01:32:24 01:35:47 19° 265° (W) 01:39:11 437.505
M-CUBED/EXP-1 PRIME 26 Dec 01:34:11 01:38:44 41° 257° (WSW) 01:43:22 437.505
ITUPSAT 1 26 Dec 01:35:17 01:38:45 20° 265° (W) 01:42:15 437.325
ITAMSAT 1 26 Dec 01:53:38 01:58:48 69° 102° (ESE) 02:03:57 435.822/435.867
BEESAT 26 Dec 01:58:24 01:59:44 11° 268° (W) 02:01:04 436.000
VERMONT LUNAR 26 Dec 02:06:00 02:09:04 27° 355° (N) 02:12:08 437.305
Gurwin Techsat 1B 26 Dec 02:23:33 02:28:53 83° 103° (ESE) 02:34:11 435.225
STARS 26 Dec 02:42:37 02:46:10 24° 264° (W) 02:49:45 437.465
GONETS M04 26 Dec 02:44:40 02:46:23 11° 77° (ENE) 02:48:06
AIST 1 26 Dec 02:48:33 02:52:48 74° 265° (W) 02:57:02
PHONESAT 2.4 26 Dec 02:49:26 02:52:34 27° 358° (N) 02:55:43 2401.200-2431.200
HORYU 2 26 Dec 02:50:48 02:55:15 58° 101° (E) 02:59:40 437.375
MOZHAYETS 4 26 Dec 03:14:42 03:18:38 28° 71° (ENE) 03:22:35
SO-50 26 Dec 03:17:51 03:21:24 20° 50° (NE) 03:24:56 436.795
AO-7 26 Dec 03:32:20 03:40:27 52° 102° (ESE) 03:48:29 29.400- 29.500
ITAMSAT 1 26 Dec 03:35:36 03:37:39 12° 297° (WNW) 03:39:43 435.822/435.867
VERMONT LUNAR 26 Dec 03:44:40 03:47:54 33° 12° (NNE) 03:51:08 437.305
Gurwin Techsat 1B 26 Dec 04:07:12 04:08:05 10° 298° (WNW) 04:08:57 435.225
JAS-2 26 Dec 04:14:20 04:19:13 37° 98° (E) 04:23:57 435.910
PHONESAT 2.4 26 Dec 04:28:20 04:31:46 39° 15° (NNE) 04:35:11 2401.200-2431.200
HORYU 2 26 Dec 04:30:00 04:31:21 11° 295° (WNW) 04:32:43 437.375
GONETS M04 26 Dec 04:32:48 04:41:36 76° 93° (E) 04:50:25
MOZHAYETS 4 26 Dec 04:52:06 04:55:46 23° 265° (W) 04:59:29
CUBESAT XI-V 26 Dec 04:55:20 04:58:59 23° 70° (ENE) 05:02:38 437.345
PRISM 26 Dec 04:57:21 05:01:26 52° 74° (ENE) 05:05:32 437.425
SO-50 26 Dec 04:57:27 05:02:09 47° 246° (WSW) 05:06:50 436.795
VERMONT LUNAR 26 Dec 05:22:51 05:26:21 68° 208° (SSW) 05:29:50 437.305
AO-7 26 Dec 05:25:44 05:32:48 32° 298° (WNW) 05:39:51 29.400- 29.500
Cubesat XI-IV 26 Dec 05:36:10 05:41:14 44° 100° (E) 05:46:17 437.490
STRAND 1 26 Dec 05:53:23 05:58:29 87° 76° (ENE) 06:03:36 437.568
JAS-2 26 Dec 06:00:11 06:04:02 21° 294° (WNW) 06:07:47 435.910
PHONESAT 2.4 26 Dec 06:06:59 06:10:30 50° 210° (SSW) 06:14:00 2401.200-2431.200
CUTE-I 26 Dec 06:07:25 06:12:46 90° 104° (ESE) 06:18:05 437.470
MaSat-1 26 Dec 06:10:40 06:12:21 19° 109° (ESE) 06:14:00 437.345
CUBESAT XI-V 26 Dec 06:32:15 06:36:14 28° 263° (W) 06:40:14 437.345
GONETS M04 26 Dec 06:33:19 06:39:14 19° 291° (WNW) 06:45:11
VERMONT LUNAR 26 Dec 07:03:29 07:04:10 10° 220° (SW) 07:04:51 437.305
BRITE-PL 26 Dec 07:13:34 07:15:20 12° 93° (E) 07:17:08 437.365/2234.400
Cubesat XI-IV 26 Dec 07:17:13 07:20:57 20° 294° (WNW) 07:24:40 437.490
CUSAT 1 26 Dec 07:38:01 07:41:12 23° 85° (E) 07:45:09 437.405
HO-68 26 Dec 08:01:42 08:08:19 40° 99° (E) 08:14:54 435.675
CANX-2 26 Dec 08:02:02 08:05:54 32° 97° (E) 08:09:44 2200.000
COMPASS 1 26 Dec 08:06:09 08:09:30 22° 96° (E) 08:12:49 437.405
RS-15 26 Dec 08:18:15 08:24:19 17° 100° (E) 08:30:18 29.354- 29.394
SEEDS 26 Dec 08:19:53 08:23:56 40° 99° (E) 08:27:56 437.485
CINEMA 3 26 Dec 08:20:20 08:23:40 18° 94° (E) 08:27:03 145.822/145.860
CUTE 1.7 + AOD 2 26 Dec 08:31:37 08:35:55 69° 101° (E) 08:40:10 437.475
DOVE 4 26 Dec 08:40:01 08:44:55 52° 100° (E) 08:50:01 437.250
ZACube-1 26 Dec 08:43:02 08:44:40 12° 92° (E) 08:46:18 437.345
GOMX 1 26 Dec 08:43:41 08:48:44 78° 102° (ESE) 08:54:05 467.674
UNISAT 6 26 Dec 08:46:14 08:49:24 20° 68° (ENE) 08:52:38 437.425
BRITE-PL 26 Dec 08:49:04 08:54:02 67° 284° (WNW) 08:59:23 437.365/2234.400
YUBILEINY 26 Dec 08:53:12 08:59:58 25° 71° (ENE) 09:06:43 435.215
CUBEBUG 2 26 Dec 08:57:54 09:01:54 27° 96° (E) 09:05:55 437.445
DANDE 26 Dec 09:00:02 09:03:39 44° 285° (WNW) 09:08:31 436.750
JUGNU 26 Dec 09:00:02 09:03:54 18° 171° (S) 09:07:47 437.505
AAUSAT CUBESAT 2 26 Dec 09:00:57 09:05:12 84° 283° (WNW) 09:09:24 437.432
DUCHIFAT 1 26 Dec 09:04:20 09:07:12 18° 69° (ENE) 09:10:04 145.980
FUNcube-1 26 Dec 09:06:02 09:09:38 22° 95° (E) 09:13:12 145.935
O/OREOS (USA 219) 26 Dec 09:09:23 09:13:55 77° 70° (ENE) 09:18:28 437.305
ANTELSAT 26 Dec 09:17:35 09:21:46 45° 73° (ENE) 09:26:05 437.575/2403.000
50 SAT 26 Dec 09:18:21 09:19:44 11° 93° (E) 09:21:06 437.505
DX 1 26 Dec 09:18:32 09:22:44 48° 100° (E) 09:26:56 434.975-435.025
DELFI C3 26 Dec 09:18:48 09:22:51 58° 100° (E) 09:26:52 145.870
CUSAT 1 26 Dec 09:20:50 09:24:08 22° 292° (WNW) 09:28:13 437.405
QB50P2 26 Dec 09:21:44 09:25:24 30° 72° (ENE) 09:29:06 145.880/145.840
UWE-3 26 Dec 09:22:22 09:26:49 42° 99° (E) 09:31:16 435.000/436.395/437.385
ISS 26 Dec 09:23:40 09:25:42 15° 127° (SE) 09:27:44 145.825
NANOSAT C BR1 26 Dec 09:29:07 09:32:58 36° 73° (ENE) 09:36:50 145.865
Oscar 11 26 Dec 09:29:49 09:34:11 83° 283° (WNW) 09:38:31 145.826/435.025
POLYITAN 1 26 Dec 09:32:33 09:36:29 40° 73° (ENE) 09:40:27 437.675
CANX-2 26 Dec 09:38:42 09:41:33 18° 291° (WNW) 09:44:24 2200.000
COMPASS 1 26 Dec 09:41:42 09:45:05 24° 289° (WNW) 09:48:28 437.405
UKube-1 26 Dec 09:42:25 09:46:46 88° 283° (WNW) 09:51:06 .
QB50P1 26 Dec 09:44:24 09:48:31 57° 75° (ENE) 09:52:39 145.935-145.965
TIGRISAT 26 Dec 09:48:49 09:53:11 78° 258° (WSW) 09:57:42 435.000
HO-68 26 Dec 09:49:36 09:55:49 34° 294° (WNW) 10:02:01 435.675
AISAT 26 Dec 09:51:14 09:55:22 36° 99° (E) 09:59:28 437.250
CINEMA 3 26 Dec 09:56:20 10:00:56 41° 287° (WNW) 10:05:37 145.822/145.860
SEEDS 26 Dec 09:57:08 09:59:21 14° 293° (WNW) 10:01:33 437.485
BUGSAT 1 26 Dec 10:06:41 10:10:45 86° 77° (ENE) 10:14:49 437.445
POPSAT HIP 1 26 Dec 10:13:58 10:18:06 60° 259° (W) 10:22:16 437.405
SRMSAT 26 Dec 10:15:42 10:19:27 17° 170° (S) 10:23:12 437.500
ZACube-1 26 Dec 10:16:47 10:21:16 54° 285° (WNW) 10:25:45 437.345
DOVE 4 26 Dec 10:19:16 10:22:15 16° 292° (WNW) 10:25:19 437.250
UNISAT 6 26 Dec 10:22:03 10:25:56 31° 263° (W) 10:29:56 437.425
RS-15 26 Dec 10:24:01 10:35:01 88° 117° (ESE) 10:46:00 29.354- 29.394
GOMX 1 26 Dec 10:25:05 10:26:16 11° 295° (WNW) 10:27:27 467.674
HUMSAT D 26 Dec 10:28:37 10:32:57 68° 284° (WNW) 10:37:16 437.325/437.525
CUBEBUG 2 26 Dec 10:34:34 10:38:27 26° 289° (WNW) 10:42:22 437.445
BEESAT 3 26 Dec 10:38:06 10:41:57 43° 114° (ESE) 10:45:53 437.485
DUCHIFAT 1 26 Dec 10:39:09 10:42:48 29° 263° (W) 10:46:29 145.980
VELOX 1 26 Dec 10:40:38 10:44:59 57° 285° (WNW) 10:49:20 145.980
FUNcube-1 26 Dec 10:41:58 10:45:54 29° 289° (WNW) 10:49:50 145.935
JUGNU 26 Dec 10:47:57 10:52:17 21° 182° (S) 10:56:37 437.505
YUBILEINY 26 Dec 10:48:44 10:57:13 61° 269° (W) 11:05:44 435.215
50 SAT 26 Dec 10:51:08 10:55:06 44° 286° (WNW) 10:59:02 437.505
DX 1 26 Dec 10:56:39 10:58:31 13° 294° (WNW) 11:00:23 434.975-435.025
ANTELSAT 26 Dec 10:56:45 10:58:47 13° 268° (W) 11:00:51 437.575/2403.000
QB50P2 26 Dec 10:58:30 11:01:19 17° 265° (W) 11:04:09 145.880/145.840
ISS 26 Dec 10:58:54 11:02:01 37° 321° (NW) 11:05:07 145.825
UWE-3 26 Dec 11:00:05 11:02:58 16° 292° (WNW) 11:05:51 435.000/436.395/437.385
Oscar 19 26 Dec 11:03:57 11:04:04 10° 62° (ENE) 11:04:11 437.125/150
ESTCUBE 1 26 Dec 11:06:27 11:10:57 77° 284° (WNW) 11:15:25 437.505/2401.250
NANOSAT C BR1 26 Dec 11:06:39 11:08:56 14° 266° (W) 11:11:13 145.865
PCSat 26 Dec 11:07:46 11:12:37 35° 109° (ESE) 11:17:31 145.827
CUBEBUG 1 26 Dec 11:09:58 11:14:18 73° 284° (WNW) 11:18:38 437.445
POLYITAN 1 26 Dec 11:10:42 11:12:34 13° 267° (W) 11:14:27 437.675
AIST 2 26 Dec 11:21:56 11:26:01 53° 115° (ESE) 11:30:11 435.215
BEESAT 2 26 Dec 11:23:48 11:27:50 59° 300° (WNW) 11:31:57 435.950
TISAT 1 26 Dec 11:27:49 11:31:46 37° 99° (E) 11:35:43 437.305
AISAT 26 Dec 11:28:49 11:31:39 17° 292° (WNW) 11:34:30 437.250
SPROUT 26 Dec 11:52:09 11:56:28 73° 102° (ESE) 12:00:46 437.525
SWISSCUBE 26 Dec 11:59:54 12:01:50 12° 93° (E) 12:03:46 437.505
ITUPSAT 1 26 Dec 12:03:14 12:05:01 12° 93° (E) 12:06:48 437.325
SRMSAT 26 Dec 12:03:37 12:07:59 21° 180° (S) 12:12:20 437.500
BEESAT 3 26 Dec 12:17:55 12:20:19 15° 310° (NW) 12:22:45 437.485
BEESAT 26 Dec 12:22:06 12:25:41 21° 95° (E) 12:29:15 436.000
JUGNU 26 Dec 12:37:11 12:40:39 16° 192° (SSW) 12:44:06 437.505
Oscar 19 26 Dec 12:37:29 12:42:38 82° 257° (WSW) 12:47:50 437.125/150
RS-15 26 Dec 12:40:20 12:48:51 25° 320° (NW) 12:57:28 29.354- 29.394
PCSat 26 Dec 12:51:30 12:56:02 27° 304° (NW) 13:00:36 145.827
AIST 2 26 Dec 13:02:45 13:04:56 14° 311° (NW) 13:07:09 435.215
TISAT 1 26 Dec 13:04:51 13:07:14 15° 292° (WNW) 13:09:37 437.305
ITAMSAT 1 26 Dec 13:07:43 13:12:51 70° 75° (ENE) 13:18:00 435.822/435.867
KKS-1 26 Dec 13:18:37 13:21:17 16° 94° (E) 13:23:57 437.445
M-CUBED/EXP-1 PRIME 26 Dec 13:22:16 13:25:20 21° 99° (E) 13:28:13 437.505
SWISSCUBE 26 Dec 13:35:19 13:39:57 53° 286° (WNW) 13:44:33 437.505
ITUPSAT 1 26 Dec 13:38:32 13:43:11 55° 286° (WNW) 13:47:48 437.325
Gurwin Techsat 1B 26 Dec 13:40:40 13:45:59 88° 76° (ENE) 13:51:19 435.225
HORYU 2 26 Dec 13:45:45 13:49:45 33° 72° (ENE) 13:53:46 437.375
SRMSAT 26 Dec 13:52:49 13:56:30 17° 190° (S) 14:00:11 437.500
BEESAT 26 Dec 13:59:18 14:03:31 32° 289° (WNW) 14:07:42 436.000
JAS-2 26 Dec 14:23:59 14:27:36 15° 63° (ENE) 14:31:04 435.910
AUBIESAT-1 26 Dec 14:25:50 14:29:46 57° 290° (WNW) 14:33:21 437.475
AO-7 26 Dec 14:26:54 14:34:47 50° 66° (ENE) 14:42:44 29.400- 29.500
STARS 26 Dec 14:35:32 14:40:00 83° 103° (ESE) 14:44:28 437.465
GONETS M04 26 Dec 14:48:52 14:56:20 31° 74° (ENE) 15:03:41
ITAMSAT 1 26 Dec 14:51:37 14:52:45 11° 268° (W) 14:53:53 435.822/435.867
KKS-1 26 Dec 14:53:52 14:58:01 38° 287° (WNW) 15:02:10 437.445
M-CUBED/EXP-1 PRIME 26 Dec 14:57:10 15:00:14 21° 296° (WNW) 15:03:07 437.505
AIST 1 26 Dec 15:13:48 15:18:09 80° 96° (E) 15:22:31
HORYU 2 26 Dec 15:23:23 15:26:26 18° 265° (W) 15:29:31 437.375
CUTE-I 26 Dec 15:50:20 15:51:26 11° 62° (ENE) 15:52:33 437.470
JAS-2 26 Dec 16:04:19 16:11:55 90° 255° (WSW) 16:18:47 435.910
AO-7 26 Dec 16:20:33 16:27:41 32° 262° (W) 16:34:53 29.400- 29.500
GONETS M04 26 Dec 16:45:03 16:53:19 49° 271° (W) 17:01:31
MOZHAYETS 4 26 Dec 16:50:15 16:54:51 71° 284° (WNW) 16:59:23
Cubesat XI-IV 26 Dec 16:54:22 16:59:29 50° 73° (ENE) 17:04:37 437.490
MaSat-1 26 Dec 17:14:06 17:15:48 17° 252° (WSW) 17:17:35 437.345
RS-15 26 Dec 17:18:50 17:26:35 20° 34° (NE) 17:34:30 29.354- 29.394
CUTE-I 26 Dec 17:25:26 17:30:45 82° 257° (WSW) 17:36:05 437.470
ISS 26 Dec 17:30:04 17:33:08 35° 39° (NE) 17:36:10 145.825
SO-50 26 Dec 17:31:00 17:32:43 12° 107° (ESE) 17:34:27 436.795
JAS-2 26 Dec 17:54:08 17:57:19 13° 268° (W) 18:00:26 435.910
DANDE 26 Dec 18:02:05 18:07:56 20° 69° (ENE) 18:13:52 436.750
STRAND 1 26 Dec 18:08:09 18:12:56 40° 99° (E) 18:17:42 437.568
